QPF
0.00 0.00 0.00 0.00 0.00 0.00 0.00 0.00 0.00 0.00 0.00 0.00 0.00 0.00 0.00 0.00 0.00 0.00 0.00 0.00 0.00 0.00 0.00 0.00 0.00 0.00 0.00 0.00 0.00 0.01 0.02 0.04 0.04 0.04 0.06 0.07 0.09 0.10 0.10 0.13 0.15 0.18 0.17
0.00 0.00 0.00 0.00 0.00 0.00 0.00 0.00 0.00 0.00 0.00 0.00 0.00 0.00 0.00 0.00 0.00 0.00 0.00 0.00 0.00 0.00 0.00 0.00 0.00 0.00 0.00 0.00 0.00 0.00 0.01 0.02 0.03 0.03 0.04 0.06 0.09 0.11 0.11 0.11 0.13 0.15 0.18
0.00 0.00 0.00 0.00 0.00 0.00 0.00 0.00 0.00 0.00 0.00 0.00 0.00 0.00 0.00 0.00 0.00 0.00 0.00 0.00 0.01 0.01 0.01 0.01 0.01 0.01 0.01 0.01 0.01 0.00 0.01 0.01 0.02 0.03 0.03 0.05 0.08 0.12 0.15 0.14 0.13 0.13 0.15
0.00 0.00 0.00 0.00 0.00 0.00 0.00 0.00 0.00 0.00 0.00 0.00 0.00 0.00 0.00 0.00 0.00 0.00 0.00 0.01 0.01 0.01 0.01 0.01 0.01 0.01 0.01 0.01 0.01 0.01 0.01 0.01 0.01 0.02 0.03 0.04 0.06 0.10 0.14 0.16 0.19 0.18 0.18
0.00 0.00 0.00 0.00 0.00 0.00 0.00 0.00 0.00 0.00 0.00 0.00 0.00 0.00 0.00 0.00 0.00 0.00 0.00 0.00 0.01 0.01 0.01 0.01 0.01 0.00 0.00 0.00 0.00 0.01 0.01 0.01 0.01 0.01 0.02 0.04 0.05 0.08 0.12 0.16 0.19 0.25 0.24
0.00 0.00 0.00 0.00 0.00 0.00 0.00 0.00 0.00 0.00 0.00 0.00 0.00 0.00 0.00 0.00 0.00 0.00 0.00 0.00 0.00 0.01 0.01 0.01 0.01 0.00 0.00 0.00 0.00 0.00 0.00 0.01 0.01 0.01 0.01 0.02 0.05 0.09 0.13 0.19 0.22 0.22 0.22
0.00 0.00 0.00 0.00 0.00 0.00 0.00 0.00 0.00 0.00 0.00 0.00 0.00 0.00 0.00 0.00 0.00 0.00 0.00 0.00 0.00 0.00 0.01 0.02 0.01 0.00 0.00 0.00 0.00 0.00 0.00 0.00 0.00 0.01 0.01 0.02 0.03 0.07 0.13 0.18 0.25 0.26 0.23
0.00 0.00 0.00 0.00 0.00 0.00 0.00 0.00 0.00 0.00 0.00 0.00 0.00 0.00 0.00 0.00 0.00 0.00 0.00 0.00 0.00 0.00 0.01 0.01 0.02 0.01 0.01 0.01 0.01 0.01 0.01 0.00 0.00 0.00 0.01 0.02 0.03 0.05 0.09 0.16 0.25 0.34 0.35
0.00 0.00 0.00 0.00 0.00 0.00 0.00 0.00 0.00 0.00 0.00 0.00 0.00 0.00 0.00 0.00 0.00 0.00 0.00 0.00 0.00 0.00 0.01 0.01 0.01 0.02 0.01 0.00 0.01 0.01 0.01 0.01 0.00 0.00 0.00 0.01 0.01 0.03 0.05 0.11 0.21 0.30 0.37
0.00 0.00 0.00 0.00 0.00 0.00 0.00 0.00 0.00 0.00 0.00 0.00 0.00 0.00 0.00 0.00 0.00 0.00 0.00 0.00 0.00 0.00 0.01 0.02 0.01 0.00 0.00 0.00 0.01 0.01 0.02 0.01 0.01 0.01 0.00 0.00 0.01 0.02 0.03 0.06 0.14 0.25 0.32
0.00 0.00 0.00 0.00 0.00 0.00 0.00 0.00 0.00 0.00 0.00 0.00 0.00 0.00 0.00 0.00 0.00 0.00 0.00 0.00 0.00 0.01 0.01 0.01 0.02 0.00 0.00 0.00 0.00 0.01 0.01 0.01 0.02 0.02 0.02 0.02 0.02 0.03 0.04 0.05 0.11 0.20 0.29
0.00 0.00 0.00 0.00 0.00 0.00 0.00 0.00 0.00 0.00 0.00 0.00 0.00 0.00 0.00 0.00 0.00 0.00 0.00 0.00 0.00 0.00 0.01 0.01 0.02 0.00 0.00 0.00 0.00 0.00 0.00 0.00 0.01 0.02 0.02 0.02 0.02 0.03 0.04 0.05 0.08 0.16 0.25
0.00 0.00 0.00 0.00 0.00 0.00 0.00 0.00 0.00 0.00 0.00 0.00 0.00 0.00 0.00 0.00 0.01 0.00 0.00 0.00 0.00 0.00 0.00 0.01 0.01 0.00 0.00 0.00 0.00 0.00 0.00 0.01 0.02 0.02 0.02 0.01 0.02 0.04 0.06 0.08 0.11 0.17 0.24
0.00 0.00 0.00 0.00 0.00 0.00 0.00 0.00 0.00 0.00 0.00 0.00 0.00 0.00 0.00 0.01 0.01 0.02 0.02 0.01 0.01 0.01 0.01 0.01 0.00 0.00 0.00 0.00 0.01 0.01 0.01 0.02 0.03 0.03 0.03 0.04 0.05 0.06 0.07 0.08 0.11 0.17 0.22
0.00 0.00 0.00 0.00 0.00 0.00 0.00 0.00 0.00 0.00 0.00 0.00 0.00 0.00 0.01 0.01 0.01 0.01 0.00 0.00 0.01 0.01 0.01 0.01 0.02 0.03 0.03 0.04 0.04 0.04 0.04 0.03 0.03 0.04 0.06 0.06 0.07 0.06 0.07 0.09 0.12 0.15 0.17
0.00 0.00 0.00 0.00 0.00 0.00 0.00 0.00 0.00 0.00 0.00 0.00 0.00 0.00 0.00 0.00 0.00 0.00 0.00 0.00 0.00 0.00 0.00 0.01 0.02 0.04 0.05 0.05 0.06 0.07 0.07 0.06 0.05 0.06 0.07 0.08 0.08 0.08 0.08 0.09 0.12 0.15 0.15
0.01 0.00 0.00 0.00 0.00 0.00 0.00 0.00 0.00 0.00 0.00 0.00 0.00 0.00 0.00 0.00 0.00 0.00 0.00 0.01 0.01 0.01 0.01 0.01 0.02 0.04 0.04 0.05 0.05 0.07 0.08 0.08 0.09 0.10 0.10 0.11 0.11 0.11 0.11 0.10 0.11 0.14 0.16
0.00 0.00 0.00 0.00 0.00 0.00 0.00 0.00 0.00 0.00 0.00 0.01 0.01 0.00 0.00 0.00 0.00 0.00 0.01 0.01 0.01 0.02 0.02 0.02 0.03 0.03 0.04 0.05 0.05 0.07 0.09 0.10 0.12 0.12 0.13 0.13 0.14 0.14 0.13 0.12 0.11 0.12 0.14
0.00 0.00 0.00 0.00 0.00 0.00 0.00 0.00 0.00 0.00 0.01 0.01 0.02 0.02 0.01 0.01 0.00 0.01 0.01 0.01 0.02 0.03 0.03 0.02 0.02 0.03 0.04 0.04 0.05 0.07 0.08 0.10 0.11 0.12 0.14 0.15 0.15 0.16 0.15 0.15 0.14 0.13 0.14
0.00 0.00 0.00 0.00 0.00 0.00 0.00 0.00 0.00 0.01 0.02 0.03 0.03 0.02 0.02 0.02 0.02 0.03 0.02 0.02 0.03 0.03 0.03 0.03 0.03 0.02 0.03 0.04 0.06 0.08 0.10 0.10 0.10 0.11 0.13 0.15 0.15 0.17 0.16 0.17 0.18 0.15 0.13
0.00 0.00 0.00 0.00 0.00 0.00 0.01 0.01 0.01 0.01 0.02 0.03 0.02 0.02 0.01 0.01 0.02 0.04 0.04 0.04 0.04 0.04 0.05 0.05 0.04 0.03 0.04 0.04 0.04 0.07 0.09 0.09 0.09 0.10 0.11 0.12 0.13 0.15 0.15 0.17 0.20 0.21 0.18
0.00 0.00 0.00 0.00 0.00 0.01 0.01 0.01 0.01 0.02 0.02 0.02 0.02 0.03 0.02 0.03 0.05 0.05 0.05 0.05 0.07 0.07 0.06 0.06 0.06 0.06 0.05 0.05 0.05 0.05 0.07 0.09 0.09 0.10 0.10 0.10 0.11 0.12 0.12 0.14 0.17 0.22 0.22
0.00 0.00 0.01 0.01 0.01 0.01 0.01 0.01 0.02 0.02 0.02 0.01 0.02 0.04 0.04 0.05 0.06 0.06 0.06 0.07 0.08 0.07 0.07 0.07 0.07 0.07 0.07 0.08 0.08 0.07 0.07 0.08 0.09 0.10 0.10 0.10 0.11 0.12 0.12 0.12 0.13 0.16 0.18
0.01 0.01 0.01 0.01 0.01 0.01 0.01 0.01 0.02 0.02 0.01 0.01 0.03 0.03 0.04 0.04 0.05 0.05 0.05 0.06 0.08 0.09 0.09 0.09 0.09 0.08 0.08 0.09 0.09 0.09 0.09 0.09 0.09 0.10 0.11 0.12 0.12 0.13 0.13 0.13 0.12 0.13 0.14
0.01 0.01 0.02 0.02 0.02 0.01 0.01 0.02 0.02 0.02 0.01 0.02 0.02 0.02 0.02 0.03 0.04 0.04 0.04 0.05 0.07 0.09 0.09 0.08 0.09 0.08 0.09 0.08 0.08 0.09 0.07 0.05 0.04 0.07 0.11 0.13 0.14 0.14 0.14 0.13 0.13 0.14 0.14
0.02 0.02 0.02 0.02 0.02 0.01 0.01 0.02 0.02 0.01 0.01 0.01 0.02 0.02 0.01 0.02 0.03 0.02 0.03 0.04 0.05 0.06 0.05 0.06 0.07 0.07 0.07 0.08 0.07 0.07 0.05 0.03 0.03 0.02 0.07 0.12 0.14 0.13 0.14 0.14 0.12 0.14 0.14
MSLP
1015.06 1015.24 1015.39 1015.48 1015.52 1015.52 1015.47 1015.40 1015.32 1015.25 1015.19 1015.14 1015.10 1015.06 1015.00 1014.92 1014.82 1014.69 1014.55 1014.40 1014.24 1014.09 1013.93 1013.77 1013.59 1013.39 1013.16 1012.89 1012.59 1012.28 1011.95 1011.64 1011.35 1011.09 1010.86 1010.67 1010.52 1010.39 1010.30 1010.24 1010.22 1010.25 1010.35
1014.66 1014.80 1014.92 1014.99 1015.02 1014.99 1014.94 1014.86 1014.78 1014.71 1014.65 1014.61 1014.58 1014.54 1014.50 1014.43 1014.34 1014.22 1014.07 1013.92 1013.75 1013.59 1013.43 1013.26 1013.09 1012.90 1012.69 1012.46 1012.21 1011.95 1011.68 1011.41 1011.15 1010.92 1010.71 1010.52 1010.36 1010.22 1010.10 1010.02 1009.98 1009.98 1010.05
1014.25 1014.36 1014.45 1014.50 1014.51 1014.47 1014.41 1014.33 1014.25 1014.18 1014.13 1014.11 1014.09 1014.07 1014.04 1013.99 1013.90 1013.78 1013.63 1013.46 1013.27 1013.09 1012.90 1012.73 1012.55 1012.38 1012.20 1012.02 1011.82 1011.61 1011.40 1011.18 1010.96 1010.75 1010.56 1010.38 1010.21 1010.07 1009.96 1009.87 1009.83 1009.83 1009.89
1013.84 1013.94 1014.01 1014.04 1014.03 1013.98 1013.91 1013.82 1013.75 1013.69 1013.66 1013.65 1013.65 1013.66 1013.64 1013.60 1013.51 1013.38 1013.22 1013.02 1012.80 1012.59 1012.38 1012.20 1012.03 1011.87 1011.73 1011.60 1011.46 1011.31 1011.15 1010.98 1010.80 1010.62 1010.44 1010.26 1010.10 1009.96 1009.85 1009.78 1009.75 1009.76 1009.83
1013.44 1013.55 1013.61 1013.62 1013.59 1013.53 1013.44 1013.36 1013.28 1013.24 1013.22 1013.23 1013.25 1013.27 1013.27 1013.23 1013.14 1012.99 1012.80 1012.57 1012.33 1012.09 1011.86 1011.67 1011.52 1011.39 1011.30 1011.22 1011.15 1011.06 1010.96 1010.84 1010.69 1010.53 1010.35 1010.18 1010.02 1009.88 1009.78 1009.72 1009.71 1009.75 1009.85
1013.05 1013.17 1013.23 1013.24 1013.20 1013.12 1013.03 1012.93 1012.86 1012.81 1012.80 1012.82 1012.86 1012.88 1012.88 1012.83 1012.73 1012.56 1012.34 1012.09 1011.82 1011.56 1011.33 1011.15 1011.01 1010.93 1010.90 1010.88 1010.88 1010.86 1010.81 1010.73 1010.61 1010.46 1010.28 1010.10 1009.93 1009.80 1009.70 1009.66 1009.68 1009.75 1009.87
1012.66 1012.80 1012.88 1012.89 1012.84 1012.75 1012.64 1012.53 1012.45 1012.39 1012.38 1012.39 1012.42 1012.44 1012.43 1012.37 1012.24 1012.05 1011.81 1011.54 1011.25 1010.99 1010.76 1010.60 1010.51 1010.48 1010.50 1010.56 1010.62 1010.66 1010.66 1010.61 1010.51 1010.36 1010.18 1009.99 1009.81 1009.67 1009.58 1009.55 1009.59 1009.69 1009.85
1012.25 1012.44 1012.54 1012.55 1012.50 1012.40 1012.27 1012.14 1012.03 1011.95 1011.91 1011.91 1011.91 1011.91 1011.88 1011.80 1011.66 1011.45 1011.20 1010.91 1010.62 1010.37 1010.16 1010.03 1009.98 1010.01 1010.09 1010.21 1010.32 1010.42 1010.46 1010.44 1010.35 1010.20 1010.01 1009.80 1009.61 1009.46 1009.36 1009.35 1009.41 1009.54 1009.74
1011.83 1012.05 1012.18 1012.21 1012.16 1012.04 1011.89 1011.73 1011.59 1011.47 1011.40 1011.35 1011.33 1011.30 1011.24 1011.14 1010.98 1010.77 1010.52 1010.23 1009.96 1009.72 1009.54 1009.45 1009.43 1009.50 1009.63 1009.79 1009.95 1010.08 1010.15 1010.15 1010.07 1009.92 1009.72 1009.50 1009.29 1009.13 1009.03 1009.03 1009.11 1009.27 1009.51
1011.37 1011.63 1011.78 1011.82 1011.77 1011.64 1011.47 1011.28 1011.10 1010.94 1010.82 1010.74 1010.68 1010.62 1010.54 1010.42 1010.26 1010.06 1009.81 1009.55 1009.30 1009.08 1008.93 1008.85 1008.86 1008.95 1009.10 1009.28 1009.46 1009.61 1009.70 1009.70 1009.63 1009.48 1009.28 1009.05 1008.84 1008.67 1008.58 1008.58 1008.68 1008.88 1009.15
1010.86 1011.15 1011.32 1011.38 1011.33 1011.19 1011.00 1010.78 1010.56 1010.36 1010.20 1010.08 1009.98 1009.90 1009.81 1009.70 1009.55 1009.36 1009.14 1008.90 1008.68 1008.48 1008.34 1008.27 1008.28 1008.36 1008.50 1008.68 1008.85 1008.99 1009.08 1009.09 1009.02 1008.88 1008.68 1008.47 1008.26 1008.10 1008.02 1008.03 1008.14 1008.36 1008.67
1010.31 1010.61 1010.79 1010.86 1010.81 1010.66 1010.45 1010.21 1009.96 1009.74 1009.54 1009.39 1009.28 1009.18 1009.10 1009.00 1008.88 1008.72 1008.54 1008.34 1008.13 1007.94 1007.80 1007.71 1007.69 1007.74 1007.83 1007.96 1008.10 1008.22 1008.29 1008.30 1008.25 1008.12 1007.95 1007.76 1007.58 1007.43 1007.36 1007.38 1007.51 1007.74 1008.08
1009.69 1009.99 1010.18 1010.24 1010.20 1010.05 1009.84 1009.58 1009.32 1009.08 1008.87 1008.70 1008.59 1008.50 1008.44 1008.37 1008.29 1008.18 1008.03 1007.86 1007.67 1007.48 1007.31 1007.18 1007.10 1007.07 1007.09 1007.15 1007.23 1007.31 1007.36 1007.38 1007.34 1007.25 1007.12 1006.96 1006.82 1006.70 1006.65 1006.68 1006.81 1007.05 1007.39
1009.02 1009.30 1009.47 1009.54 1009.49 1009.35 1009.14 1008.90 1008.64 1008.39 1008.18 1008.03 1007.92 1007.86 1007.83 1007.81 1007.77 1007.70 1007.60 1007.45 1007.27 1007.06 1006.85 1006.65 1006.48 1006.36 1006.28 1006.26 1006.27 1006.30 1006.33 1006.34 1006.33 1006.29 1006.22 1006.12 1006.02 1005.95 1005.92 1005.96 1006.08 1006.31 1006.65
1008.30 1008.53 1008.69 1008.75 1008.71 1008.58 1008.39 1008.16 1007.92 1007.69 1007.50 1007.37 1007.29 1007.26 1007.27 1007.29 1007.30 1007.27 1007.20 1007.07 1006.87 1006.63 1006.36 1006.08 1005.81 1005.58 1005.40 1005.28 1005.21 1005.20 1005.21 1005.25 1005.28 1005.30 1005.29 1005.27 1005.23 1005.20 1005.20 1005.24 1005.36 1005.57 1005.88
1007.53 1007.71 1007.83 1007.88 1007.85 1007.75 1007.58 1007.38 1007.17 1006.97 1006.81 1006.71 1006.66 1006.67 1006.71 1006.77 1006.81 1006.82 1006.77 1006.64 1006.42 1006.14 1005.80 1005.44 1005.07 1004.73 1004.45 1004.23 1004.10 1004.05 1004.06 1004.12 1004.21 1004.30 1004.38 1004.44 1004.47 1004.50 1004.52 1004.57 1004.67 1004.85 1005.12
1006.72 1006.85 1006.94 1006.98 1006.96 1006.88 1006.75 1006.59 1006.41 1006.25 1006.13 1006.05 1006.03 1006.06 1006.13 1006.21 1006.27 1006.29 1006.24 1006.10 1005.86 1005.53 1005.13 1004.68 1004.23 1003.80 1003.43 1003.14 1002.96 1002.89 1002.91 1003.00 1003.15 1003.33 1003.49 1003.64 1003.75 1003.83 1003.90 1003.96 1004.05 1004.19 1004.42
1005.89 1005.96 1006.02 1006.06 1006.05 1006.00 1005.91 1005.80 1005.66 1005.54 1005.44 1005.39 1005.38 1005.42 1005.50 1005.58 1005.64 1005.66 1005.60 1005.43 1005.16 1004.79 1004.33 1003.82 1003.30 1002.80 1002.36 1002.03 1001.82 1001.74 1001.78 1001.92 1002.14 1002.39 1002.65 1002.88 1003.08 1003.22 1003.32 1003.40 1003.48 1003.61 1003.80
1005.06 1005.08 1005.12 1005.15 1005.17 1005.15 1005.11 1005.03 1004.94 1004.85 1004.77 1004.73 1004.72 1004.76 1004.81 1004.88 1004.92 1004.91 1004.82 1004.63 1004.33 1003.92 1003.43 1002.87 1002.31 1001.76 1001.30 1000.94 1000.72 1000.65 1000.72 1000.91 1001.18 1001.51 1001.85 1002.16 1002.43 1002.63 1002.78 1002.88 1002.98 1003.09 1003.26
1004.26 1004.24 1004.26 1004.30 1004.34 1004.36 1004.35 1004.32 1004.26 1004.19 1004.13 1004.08 1004.06 1004.07 1004.10 1004.13 1004.13 1004.08 1003.96 1003.74 1003.41 1002.98 1002.47 1001.90 1001.31 1000.76 1000.28 999.93 999.71 999.66 999.75 999.97 1000.30 1000.68 1001.08 1001.46 1001.79 1002.05 1002.24 1002.38 1002.50 1002.62 1002.79
1003.52 1003.48 1003.49 1003.54 1003.60 1003.66 1003.68 1003.68 1003.65 1003.60 1003.54 1003.48 1003.43 1003.40 1003.39 1003.37 1003.32 1003.24 1003.08 1002.83 1002.49 1002.05 1001.54 1000.97 1000.40 999.85 999.39 999.04 998.84 998.80 998.91 999.15 999.50 999.92 1000.36 1000.78 1001.15 1001.45 1001.68 1001.86 1002.01 1002.15 1002.34
1002.89 1002.83 1002.84 1002.91 1002.99 1003.07 1003.13 1003.15 1003.14 1003.09 1003.02 1002.94 1002.87 1002.80 1002.73 1002.66 1002.57 1002.44 1002.25 1001.99 1001.64 1001.21 1000.71 1000.17 999.62 999.11 998.67 998.34 998.15 998.11 998.22 998.46 998.81 999.23 999.67 1000.10 1000.49 1000.82 1001.08 1001.30 1001.47 1001.65 1001.87
1002.43 1002.36 1002.37 1002.44 1002.53 1002.63 1002.70 1002.74 1002.73 1002.69 1002.61 1002.51 1002.40 1002.29 1002.18 1002.06 1001.93 1001.77 1001.56 1001.29 1000.95 1000.54 1000.07 999.57 999.06 998.57 998.16 997.85 997.66 997.61 997.70 997.92 998.23 998.62 999.03 999.44 999.82 1000.15 1000.43 1000.66 1000.87 1001.09 1001.33
1002.17 1002.10 1002.10 1002.17 1002.26 1002.36 1002.43 1002.47 1002.46 1002.40 1002.31 1002.19 1002.06 1001.91 1001.77 1001.62 1001.46 1001.27 1001.05 1000.78 1000.45 1000.07 999.64 999.18 998.71 998.26 997.87 997.57 997.38 997.31 997.36 997.52 997.78 998.10 998.46 998.82 999.16 999.47 999.74 999.98 1000.21 1000.45 1000.73
1002.16 1002.08 1002.07 1002.12 1002.19 1002.27 1002.32 1002.34 1002.31 1002.25 1002.14 1002.00 1001.85 1001.68 1001.51 1001.34 1001.16 1000.96 1000.74 1000.48 1000.17 999.81 999.42 998.99 998.56 998.15 997.78 997.48 997.27 997.17 997.16 997.26 997.44 997.68 997.96 998.24 998.53 998.79 999.04 999.27 999.50 999.76 1000.06
1002.41 1002.31 1002.27 1002.28 1002.32 1002.35 1002.37 1002.35 1002.30 1002.21 1002.09 1001.93 1001.77 1001.59 1001.41 1001.22 1001.03 1000.83 1000.60 1000.35 1000.06 999.72 999.36 998.97 998.56 998.17 997.82 997.51 997.29 997.14 997.08 997.10 997.20 997.35 997.54 997.74 997.96 998.16 998.37 998.58 998.80 999.05 999.37
Thickness
5694 5689 5684 5680 5677 5673 5668 5664 5661 5657 5652 5649 5645 5642 5638 5635 5632 5628 5626 5623 5620 5618 5616 5615 5613 5613 5615 5620 5624 5627 5631 5635 5639 5648 5655 5660 5663 5668 5676 5681 5687 5692 5696
5693 5688 5682 5678 5674 5670 5667 5663 5658 5653 5649 5646 5641 5637 5633 5630 5626 5621 5618 5616 5613 5610 5608 5607 5605 5606 5606 5607 5611 5615 5620 5625 5628 5635 5644 5650 5654 5660 5667 5672 5679 5686 5689
5693 5686 5681 5676 5672 5668 5664 5660 5655 5650 5645 5641 5636 5631 5627 5623 5619 5615 5611 5608 5605 5603 5601 5599 5598 5597 5596 5599 5600 5604 5610 5616 5620 5626 5633 5641 5646 5652 5658 5663 5670 5676 5681
5691 5685 5679 5674 5670 5666 5661 5656 5651 5646 5641 5636 5631 5626 5621 5616 5612 5608 5605 5601 5598 5596 5594 5592 5591 5590 5589 5589 5591 5593 5598 5603 5609 5615 5623 5632 5638 5645 5649 5654 5660 5666 5672
5687 5682 5677 5673 5668 5663 5658 5652 5647 5641 5636 5631 5625 5619 5614 5609 5607 5603 5597 5594 5591 5589 5587 5586 5585 5583 5582 5580 5583 5587 5589 5593 5600 5608 5615 5622 5630 5635 5641 5647 5651 5657 5662
5684 5679 5675 5670 5664 5659 5654 5648 5642 5636 5630 5624 5618 5612 5607 5603 5599 5590 5584 5583 5582 5581 5580 5579 5579 5577 5575 5571 5570 5571 5573 5580 5589 5595 5604 5611 5618 5626 5632 5637 5642 5646 5652
5681 5676 5672 5666 5661 5655 5649 5643 5637 5630 5624 5617 5611 5605 5600 5595 5589 5582 5575 5572 5574 5575 5574 5572 5573 5575 5571 5570 5568 5565 5566 5568 5571 5578 5590 5598 5607 5615 5622 5628 5633 5639 5647
5679 5674 5669 5663 5657 5651 5644 5637 5630 5624 5617 5611 5604 5599 5593 5589 5583 5576 5569 5566 5568 5569 5569 5567 5566 5565 5564 5563 5563 5565 5566 5568 5569 5571 5577 5587 5594 5601 5609 5617 5624 5631 5638
5677 5671 5666 5659 5652 5645 5637 5630 5624 5617 5610 5604 5599 5594 5588 5584 5578 5570 5562 5564 5567 5566 5565 5564 5561 5559 5556 5552 5551 5554 5558 5561 5563 5565 5570 5576 5581 5587 5594 5604 5614 5620 5627
5674 5668 5661 5653 5645 5638 5631 5623 5617 5610 5604 5598 5594 5589 5584 5580 5574 5566 5558 5559 5562 5563 5562 5560 5555 5552 5548 5543 5543 5546 5549 5553 5556 5562 5563 5567 5573 5579 5585 5592 5604 5612 5620
5671 5663 5655 5647 5639 5632 5625 5617 5611 5604 5599 5593 5588 5584 5580 5576 5571 5564 5556 5554 5557 5558 5557 5557 5555 5548 5540 5535 5532 5537 5540 5541 5546 5551 5558 5564 5570 5577 5584 5591 5598 5607 5614
5664 5656 5648 5641 5634 5628 5620 5612 5605 5598 5593 5589 5584 5581 5578 5575 5569 5564 5555 5548 5546 5547 5549 5549 5547 5538 5532 5527 5526 5528 5527 5527 5535 5542 5549 5558 5566 5574 5581 5588 5594 5600 5607
5657 5649 5642 5635 5628 5621 5613 5607 5601 5596 5591 5587 5583 5579 5576 5574 5570 5560 5553 5547 5541 5539 5543 5541 5535 5528 5525 5524 5521 5520 5518 5522 5529 5535 5542 5550 5559 5567 5574 5579 5585 5590 5596
5651 5643 5637 5629 5623 5616 5609 5604 5598 5594 5589 5584 5579 5575 5572 5570 5566 5561 5556 5549 5540 5536 5536 5535 5528 5524 5521 5521 5522 5520 5519 5523 5527 5530 5535 5542 5550 5557 5563 5570 5577 5582 5587
5644 5637 5631 5625 5620 5611 5604 5599 5593 5589 5583 5576 5573 5570 5567 5564 5559 5547 5542 5542 5540 5537 5531 5532 5532 5531 5529 5527 5526 5525 5523 5522 5521 5524 5528 5534 5540 5547 5555 5562 5568 5575 5580
5637 5631 5627 5621 5615 5608 5601 5596 5591 5582 5575 5567 5561 5556 5557 5552 5546 5540 5534 5529 5524 5519 5519 5527 5529 5530 5529 5529 5528 5526 5523 5521 5521 5522 5524 5527 5533 5539 5546 5553 5560 5567 5574
5632 5626 5621 5616 5609 5603 5596 5591 5587 5581 5572 5565 5559 5553 5547 5545 5540 5535 5530 5525 5520 5514 5518 5525 5528 5528 5528 5528 5527 5526 5524 5522 5519 5519 5520 5523 5527 5532 5538 5545 5553 5561 5568
5625 5620 5613 5608 5602 5596 5591 5586 5581 5577 5573 5571 5563 5554 5548 5543 5538 5533 5528 5522 5526 5521 5524 5527 5529 5529 5527 5527 5526 5525 5524 5521 5518 5517 5518 5520 5523 5527 5532 5540 5548 5556 5563
5618 5614 5608 5602 5596 5590 5585 5580 5576 5572 5569 5566 5563 5559 5551 5544 5538 5533 5526 5527 5532 5534 5531 5530 5530 5530 5529 5527 5525 5524 5522 5521 5519 5517 5517 5518 5520 5523 5529 5536 5544 5549 5557
5609 5603 5596 5592 5588 5583 5578 5574 5571 5568 5565 5562 5559 5557 5554 5549 5546 5542 5534 5532 5532 5532 5531 5530 5531 5530 5529 5527 5525 5523 5522 5521 5520 5518 5517 5517 5519 5522 5527 5533 5539 5547 5554
5602 5598 5586 5580 5579 5575 5571 5568 5566 5562 5560 5557 5555 5553 5544 5544 5544 5542 5539 5536 5533 5532 5531 5529 5530 5530 5528 5526 5525 5524 5523 5523 5522 5521 5520 5520 5520 5522 5526 5531 5537 5544 5551
5589 5587 5582 5576 5571 5566 5563 5561 5559 5556 5554 5552 5552 5549 5542 5541 5541 5540 5538 5536 5533 5531 5530 5528 5529 5529 5528 5527 5526 5525 5525 5524 5525 5524 5523 5522 5522 5524 5527 5531 5536 5541 5548
5574 5573 5570 5566 5561 5556 5552 5553 5552 5550 5549 5548 5546 5545 5543 5540 5538 5537 5535 5533 5530 5529 5527 5526 5526 5526 5527 5526 5526 5526 5526 5526 5527 5526 5526 5525 5525 5526 5529 5533 5537 5541 5546
5561 5559 5558 5555 5551 5549 5547 5546 5545 5544 5543 5542 5541 5539 5538 5536 5534 5533 5531 5530 5528 5527 5525 5524 5524 5525 5525 5525 5526 5527 5528 5528 5528 5528 5528 5527 5527 5528 5530 5532 5537 5542 5546
5545 5544 5543 5541 5539 5538 5537 5537 5536 5536 5536 5535 5534 5533 5532 5530 5530 5529 5528 5526 5524 5523 5522 5521 5522 5522 5523 5524 5525 5527 5526 5524 5523 5526 5529 5529 5530 5531 5532 5534 5537 5542 5545
5528 5528 5527 5527 5526 5526 5526 5526 5527 5528 5528 5527 5527 5526 5525 5524 5524 5524 5522 5520 5519 5519 5518 5518 5519 5520 5521 5522 5523 5522 5520 5520 5519 5520 5524 5529 5531 5532 5534 5535 5539 5541 5544